CZ-5 R/B (47098 NORAD) Tracking and Keplerian Element Data
This shows tracking and keplerian element data for the satellite.
Feedback or suggestion? Click here.
Element | Value |
Catalog | 47098 |
Name | CZ-5 R/B |
Epoch Orbit | 2 |
Epoch Day | 329.06 |
Epoch Year | 2020 |
RAAN | 2.04 |
Inclination | 21.247 |
Eccentricity | 0.9576443 |
Argument of Perigee | 227.673 |
Mean Anonmoly | 9.551 |
Mean Motion | 0.14472306 |
Decay Rate | -0.00137672 |
L1 | 1 47098U 20087B 20329.06000000 -.00137672 78887-3 00000+0 0 9994 |
L2 | 2 47098 21.2470 2.0400 9576443 227.6730 9.5510 0.14472306 26 |
Live tracking and technical data element details for CZ-5 R/B (NORAD 47098). CZ-5 R/B can be tracked NOW for your location showing map with azimuth and elevation plus other details from your city location.
Track the satellite on the map from your city or location and see movement details for azimuth, elevation, latitude, longitude, range, height, and movement on the map or in text.
IsCatalogInMostPopularTable: catalog: 47098, numindb: 17
Update: records affected: 1
GetName: 47098 CZ-5 R/B
Hit Count: updated at: Mon, 18 Jan 2021 17:32:47 GMT